Time,TemperatureF,DewpointF,PressureIn,WindDirection,WindDirectionDegrees,WindSpeedMPH,WindSpeedGustMPH,Humidity,HourlyPrecipIn,Conditions,Clouds,dailyrainin,SoftwareType,DateUTC
2013-08-04 00:22:00,54.0,52.0,-100.00,North,5,1.0,1.0,92,0.00,,,-99.99,,2013-08-04 04:22:00,
2013-08-04 01:02:00,53.0,52.0,-100.00,NW,325,1.0,1.0,93,0.00,,,-99.99,,2013-08-04 05:02:00,
2013-08-04 01:12:00,53.0,51.0,-100.00,East,95,1.0,1.0,93,0.00,,,-99.99,,2013-08-04 05:12:00,
2013-08-04 01:22:00,53.0,51.0,-100.00,ENE,70,0.0,1.0,93,0.00,,,-99.99,,2013-08-04 05:22:00,
2013-08-04 01:32:00,53.0,51.0,-100.00,ESE,110,1.0,1.0,93,0.00,,,-99.99,,2013-08-04 05:32:00,
2013-08-04 02:12:00,53.0,51.0,-100.00,ENE,70,0.0,1.0,94,0.00,,,-99.99,,2013-08-04 06:12:00,
2013-08-04 03:43:00,51.0,50.0,-100.00,NNE,25,0.0,1.0,95,0.00,,,-99.99,,2013-08-04 07:43:00,
2013-08-04 03:53:00,52.0,51.0,-100.00,WNW,295,1.0,1.0,96,0.00,,,-99.99,,2013-08-04 07:53:00,
2013-08-04 04:02:00,51.0,50.0,-100.00,North,5,1.0,1.0,96,0.00,,,-99.99,,2013-08-04 08:02:00,
2013-08-04 04:23:00,51.0,50.0,-100.00,East,100,0.0,1.0,96,0.00,,,-99.99,,2013-08-04 08:23:00,
2013-08-04 04:53:00,51.0,50.0,-100.00,North,-999,-999.0,-999.0,96,0.00,,,-99.99,,2013-08-04 08:53:00,
2013-08-04 06:22:00,51.0,50.0,-100.00,NW,305,0.0,1.0,96,0.00,,,-99.99,,2013-08-04 10:22:00,
2013-08-04 06:53:00,53.0,52.0,-100.00,NNW,340,2.0,4.0,97,0.00,,,-99.99,,2013-08-04 10:53:00,
2013-08-04 07:22:00,56.0,55.0,-100.00,West,265,1.0,3.0,97,0.00,,,-99.99,,2013-08-04 11:22:00,
2013-08-04 09:02:00,64.0,56.0,-100.00,NNW,330,4.0,7.0,73,0.00,,,-99.99,,2013-08-04 13:02:00,
2013-08-04 09:12:00,65.0,56.0,-100.00,NW,320,3.0,6.0,73,0.00,,,-99.99,,2013-08-04 13:12:00,
2013-08-04 09:22:00,66.0,56.0,-100.00,NNW,340,4.0,7.0,71,0.00,,,-99.99,,2013-08-04 13:22:00,
2013-08-04 09:52:00,68.0,58.0,-100.00,NNW,340,4.0,7.0,68,0.00,,,-99.99,,2013-08-04 13:52:00,
2013-08-04 10:12:00,68.0,56.0,-100.00,North,350,3.0,7.0,64,0.00,,,-99.99,,2013-08-04 14:12:00,
2013-08-04 10:22:00,68.0,56.0,-100.00,NNW,345,5.0,7.0,65,0.00,,,-99.99,,2013-08-04 14:22:00,
2013-08-04 12:02:00,72.0,53.0,-100.00,NW,320,6.0,12.0,51,0.00,,,-99.99,,2013-08-04 16:02:00,
2013-08-04 12:12:00,71.0,53.0,-100.00,NNW,335,4.0,10.0,52,0.00,,,-99.99,,2013-08-04 16:12:00,
2013-08-04 12:22:00,72.0,54.0,-100.00,NE,55,2.0,10.0,54,0.00,,,-99.99,,2013-08-04 16:22:00,
2013-08-04 14:12:00,71.0,57.0,-100.00,NNW,340,7.0,14.0,62,0.00,,,-99.99,,2013-08-04 18:12:00,
2013-08-04 14:23:00,71.0,55.0,-100.00,NNW,340,7.0,14.0,56,0.00,,,-99.99,,2013-08-04 18:23:00,
2013-08-04 14:33:00,64.0,56.0,-100.00,NNW,330,2.0,17.0,75,0.00,,,-99.99,,2013-08-04 18:33:00,
2013-08-04 14:43:00,66.0,62.0,-100.00,West,280,1.0,4.0,85,0.00,,,-99.99,,2013-08-04 18:43:00,
2013-08-04 14:52:00,65.0,61.0,-100.00,North,350,4.0,7.0,87,0.00,,,-99.99,,2013-08-04 18:52:00,
2013-08-04 15:02:00,65.0,61.0,-100.00,NW,320,2.0,9.0,88,0.00,,,-99.99,,2013-08-04 19:02:00,
2013-08-04 15:12:00,64.0,61.0,-100.00,WNW,300,1.0,6.0,88,0.00,,,-99.99,,2013-08-04 19:12:00,
2013-08-04 15:22:00,64.0,61.0,-100.00,NW,305,1.0,3.0,90,0.00,,,-99.99,,2013-08-04 19:22:00,
2013-08-04 16:12:00,67.0,57.0,-100.00,NNW,345,6.0,12.0,70,0.00,,,-99.99,,2013-08-04 20:12:00,
2013-08-04 17:12:00,68.0,51.0,-100.00,NNW,340,8.0,13.0,54,0.00,,,-99.99,,2013-08-04 21:12:00,
2013-08-04 17:22:00,68.0,50.0,-100.00,NNW,335,7.0,11.0,51,0.00,,,-99.99,,2013-08-04 21:22:00,
2013-08-04 17:53:00,67.0,51.0,-100.00,NNW,345,4.0,10.0,57,0.00,,,-99.99,,2013-08-04 21:53:00,
2013-08-04 18:12:00,67.0,53.0,-100.00,NNW,345,4.0,11.0,59,0.00,,,-99.99,,2013-08-04 22:12:00,
2013-08-04 20:02:00,62.0,51.0,-100.00,NNW,340,6.0,9.0,66,0.00,,,-99.99,,2013-08-05 00:02:00,
2013-08-04 20:12:00,63.0,51.0,-100.00,NNW,340,9.0,13.0,64,0.00,,,-99.99,,2013-08-05 00:12:00,
2013-08-04 20:22:00,62.0,51.0,-100.00,NNW,335,7.0,13.0,65,0.00,,,-99.99,,2013-08-05 00:22:00,
2013-08-04 22:12:00,55.0,51.0,-100.00,NNW,345,3.0,4.0,85,0.00,,,-99.99,,2013-08-05 02:12:00,
2013-08-04 22:33:00,56.0,51.0,-100.00,NW,320,5.0,9.0,82,0.00,,,-99.99,,2013-08-05 02:33:00,
2013-08-04 22:43:00,57.0,51.0,-100.00,NNW,335,6.0,10.0,81,0.00,,,-99.99,,2013-08-05 02:43:00,
2013-08-04 22:53:00,57.0,51.0,-100.00,North,350,6.0,14.0,78,0.00,,,-99.99,,2013-08-05 02:53:00,
2013-08-04 23:12:00,58.0,50.0,-100.00,North,355,6.0,11.0,76,0.00,,,-99.99,,2013-08-05 03:12:00,
2013-08-04 23:22:00,57.0,50.0,-100.00,NNW,340,5.0,10.0,76,0.00,,,-99.99,,2013-08-05 03:22:00,